Regional Weather Roundup
Issued by NWS

Home | Current Version | Previous Version | Graphics & Text | Print | Product List | Glossary Off
Versions: 1 2 3 4 5 6 7 8 9 10 11 12 13 14 15 16 17 18 19 20 21 22 23 24 25 26 27 28 29 30 31 32 33 34 35 36 37 38 39 40 41 42 43 44 45 46 47 48 49 50

485
ASUS43 KMKX 261500
RWRWI

WISCONSIN REGIONAL WEATHER ROUNDUP
NATIONAL WEATHER SERVICE MILWAUKEE/SULLIVAN WI
1000 AM CDT WED APR 26 2017

NOTE: "FAIR" INDICATES FEW OR NO CLOUDS BELOW 12,000 FEET WITH NO
SIGNIFICANT WEATHER AND/OR OBSTRUCTIONS TO VISIBILITY.

WIZ001-002-006>008-014>016-023>028-261600-
NORTHWEST WISCONSIN

CITY           SKY/WX    TMP DP  RH WIND       PRES   REMARKS
SUPERIOR ARPT  CLOUDY    32  32  97 NE15G23   29.60F FOG     WCI  22
ASHLAND        MIX PCPN  32  30  92 NE20G31   29.56F FOG     WCI  20
HAYWARD        CLOUDY    33  30  88 NE15      29.49F WCI  23
SIREN          LGT RAIN  34  33  96 NE12G22   29.51F WCI  25
CUMBERLAND     RAIN      32  32 100 N13G22    29.46S WCI  22
RICE LAKE      LGT RAIN  36  34  94 N9        29.47S WCI  29
CHETEK         HVY RAIN  37  37  99 N5        29.44S WCI  33
LADYSMITH      DRIZZLE   37  36  96 N10G16    29.44F WCI  30
EAU CLAIRE     NOT AVBL
MENOMONIE      RAIN      39  39 100 NW9       29.44S WCI  33
NEW RICHMOND   LGT RAIN  36  35  97 N8        29.48S WCI  29
OSCEOLA        LGT RAIN  36  36 100 N8        29.53R WCI  29
$$

WIZ003>005-009-010-017-018-261600-
NORTH CENTRAL WISCONSIN

CITY           SKY/WX    TMP DP  RH WIND       PRES   REMARKS
MANITOWISH WTR CLOUDY    34  34 100 NE12G17   29.45F WCI  26
ARBOR VITAE    LGT RAIN  39  38  94 NE8       29.42F WCI  34
WOODRUFF       LGT RAIN  39  38  94 NE8       29.42F WCI  34
RHINELANDER    LGT RAIN  48  48 100 NE7       29.42R
EAGLE RIVER    RAIN      41  41 100 NE15      29.41F
LAND O LAKES   LGT RAIN  37  37 100 N5        29.48F WCI  33
PHILLIPS       DRIZZLE   37  37 100 NE10G17   29.42F WCI  29
TOMAHAWK       CLOUDY    46  46  97 NE3       29.41F FOG
MEDFORD        DRIZZLE   49  48  99 NE8       29.37F
MERRILL        RAIN      52  52 100 E6        29.40S
$$

WIZ029-030-035-036-043>047-261600-
CENTRAL WISCONSIN

CITY           SKY/WX    TMP DP  RH WIND       PRES   REMARKS
WAUSAU         CLOUDY    54  53  97 E9        29.35F FOG
MOSINEE        NOT AVBL
MARSHFIELD     CLOUDY    55  53  93 E8        29.35F FOG
STEVENS POINT  CLOUDY    55  54  99 E13       29.37F
WAUPACA        HVY RAIN  59  58  96 SE7       29.40F
WAUTOMA        LGT RAIN  59  57  93 SE9       29.37
WISC RAPIDS    CLOUDY    59  57  93 E5        29.36S
CAMP DOUGLAS   CLOUDY    61  57  88 CALM      29.35R
$$

WIZ011>013-019>022-031-037>040-048>050-261600-
NORTHEAST WISCONSIN

CITY           SKY/WX    TMP DP  RH WIND       PRES   REMARKS
ANTIGO         LGT RAIN  50  50 100 E13       29.40F
SHAWANO        CLOUDY    55  52  91 NE6       29.42F
OCONTO         CLOUDY    57  52  83 E5        29.42F
STURGEON BAY   CLOUDY    60  53  77 S20       29.42F
GREEN BAY      PTSUNNY   65  58  78 S9        29.39F
MANITOWOC      NOT AVBL
APPLETON       CLOUDY    63  52  67 S7        29.38F
CLINTONVILLE   HVY RAIN  52  52 100 NE8       29.40F
OSHKOSH        CLOUDY    63  55  75 S13       29.38F
$$

WIZ032>034-041-042-053>061-261600-
SOUTHWEST WISCONSIN

CITY           SKY/WX    TMP DP  RH WIND       PRES   REMARKS
LA CROSSE      LGT RAIN  58  56  93 CALM      29.36R FOG
SPARTA         PTSUNNY   55  55 100 CALM      29.37R FOG
VIROQUA        CLOUDY    57  56  99 SW8       29.37R
BOSCOBEL       LGT RAIN  60  58  92 SW8       29.39R FOG
PRAIRIE DU CHI LGT RAIN  56  54  91 SW6       29.39R
PLATTEVILLE    CLOUDY    59  59 100 SW12      29.40R
$$

WIZ056-057-062-063-064-067-068-261600-
SOUTH CENTRAL WISCONSIN

CITY           SKY/WX    TMP DP  RH WIND       PRES   REMARKS
REEDSBURG      LGT RAIN  62  55  79 S6        29.36S
BARABOO/DELLS  LGT RAIN  62  53  72 S12       29.36F
LONE ROCK      HVY RAIN  60  57  89 SW5       29.38R VSB 3/4
MINERAL POINT  RAIN      59  59 100 SW7       29.39R
MADISON        LGT RAIN  59  57  93 SW3       29.36F FOG
MIDDLETON      CLOUDY    59  56  90 S9        29.37F
WATERTOWN      LGT RAIN  61  58  92 SW7       29.39F
MONROE         RAIN      57  55  94 SW7       29.39R
JANESVILLE     LGT RAIN  61  61 100 S12       29.39F FOG
$$

WIZ051-052-058>065-066-070>072-261600-
SOUTHEAST WISCONSIN

CITY           SKY/WX    TMP DP  RH WIND       PRES   REMARKS
MILWAUKEE      CLOUDY    67  57  70 S5        29.40F
WAUKESHA       CLOUDY    61  55  82 SW14      29.42R
MILWAUKEE/TIMM RAIN      64  54  68 S13G18    29.41R
RACINE         CLOUDY    60  51  72 SE9       29.42S
KENOSHA        CLOUDY    67  55  65 SW14      29.40F
FOND DU LAC    CLOUDY    64  54  69 S8        29.39F
SHEBOYGAN      CLOUDY    57  52  83 S10       29.41F HAZE
WEST BEND      CLOUDY    64  55  72 S14G20    29.42R
JUNEAU         CLOUDY    63  55  74 S16G22    29.41S
$$

LSZ147-162-261600-
LAKE SUPERIOR

STATION/POSITION TIME  TEMP    WIND        PRES    WAVE
                       AIR SEA DIR/SP/G            HT/PER
                 (UTC) (F)     (DEG/KT/KT) (MB)    (FT/S)
DEVILS ISLAND    1400   32      40/ 34/ 38 1003.6F
PORT WING        1440   33      40/ 31/ 45 1002.4F
SAXON HARBOR     1440   34      40/ 26/ 33 1000.7F
$$

LMZ867-665-643>646-261600-
LAKE MICHIGAN

STATION/POSITION TIME  TEMP    WIND        PRES    WAVE
                       AIR SEA DIR/SP/G            HT/PER
                 (UTC) (F)     (DEG/KT/KT) (MB)    (FT/S)
CHAMBERS ISLAND  1440   47     340/  4/  5  997.6F
N MID LAKE BUOY  1350   42 37  100/ 10/ 12  999.7F   2/ 4
NORTHPORT PIER   1440   49     120/  7/ 12  998.3F
KEWAUNEE LAKESHO 1430   48     170/  9/ 12  997.1F
SHEBOYGAN LAKESH 1400   46     160/ 13/ 14  996.6F
PORT WASHINGTON  1440   50     190/  6/  8  997.6S
MILWAUKEE LAKESH 1430   50     140/ 16/ 17   N/A
S MID LAKE BUOY  1350   48 41  110/ 14/ 16  997.6F   2/ 4
KENOSHA   LAKESH 1400   52     180/ 11/ 19  997.0
$$

TC  - TEMPERATURE IN CELSIUS
VSB - VISIBILITY IN STATUTE MILES
WCI - WIND CHILL INDEX
HX  - HEAT INDEX





USA.gov is the U.S. government's official web portal to all federal, state and local government web resources and services.